Time,TemperatureF,DewpointF,PressureIn,WindDirection,WindDirectionDegrees,WindSpeedMPH,WindSpeedGustMPH,Humidity,HourlyPrecipIn,Conditions,Clouds,dailyrainin,SoftwareType,DateUTC
2013-03-18 00:15:00,50.0,45.7,30.02,North,0,0.0,1.0,85,0.00,,,-99.99,Weather View 32 v70,2013-03-18 07:15:00,
2013-03-18 00:30:00,50.0,45.7,30.01,North,0,0.0,0.0,85,0.00,,,-99.99,Weather View 32 v70,2013-03-18 07:30:00,
2013-03-18 00:45:00,49.0,44.7,30.01,NNW,338,0.0,0.0,85,0.00,,,-99.99,Weather View 32 v70,2013-03-18 07:45:00,
2013-03-18 01:00:00,48.0,44.3,30.01,NW,315,0.0,0.0,87,0.00,,,-99.99,Weather View 32 v70,2013-03-18 08:00:00,
2013-03-18 01:15:00,48.0,44.6,30.01,NNW,338,0.0,0.0,88,0.00,,,-99.99,Weather View 32 v70,2013-03-18 08:15:00,
2013-03-18 01:30:00,47.0,43.9,30.01,NW,315,0.0,0.0,89,0.00,,,-99.99,Weather View 32 v70,2013-03-18 08:30:00,
2013-03-18 01:45:00,46.0,43.5,30.00,East,90,0.0,0.0,91,0.00,,,-99.99,Weather View 32 v70,2013-03-18 08:45:00,
2013-03-18 02:00:00,47.0,44.8,30.00,NNE,22,0.0,0.0,92,0.00,,,-99.99,Weather View 32 v70,2013-03-18 09:00:00,
2013-03-18 02:15:00,47.0,44.5,29.99,ENE,68,0.0,0.0,91,0.00,,,-99.99,Weather View 32 v70,2013-03-18 09:15:00,
2013-03-18 02:45:00,46.0,43.5,29.98,NW,315,0.0,0.0,91,0.00,,,-99.99,Weather View 32 v70,2013-03-18 09:45:00,
2013-03-18 03:00:00,45.0,42.8,29.97,East,90,0.0,0.0,92,0.00,,,-99.99,Weather View 32 v70,2013-03-18 10:00:00,
2013-03-18 03:15:00,46.0,43.8,29.97,East,90,0.0,0.0,92,0.00,,,-99.99,Weather View 32 v70,2013-03-18 10:15:00,
2013-03-18 03:30:00,46.0,43.8,29.97,North,0,0.0,0.0,92,0.00,,,-99.99,Weather View 32 v70,2013-03-18 10:30:00,
2013-03-18 03:45:00,45.0,42.8,29.97,East,90,0.0,0.0,92,0.00,,,-99.99,Weather View 32 v70,2013-03-18 10:45:00,
2013-03-18 04:00:00,45.0,42.8,29.97,NNE,22,0.0,0.0,92,0.00,,,-99.99,Weather View 32 v70,2013-03-18 11:00:00,
2013-03-18 04:15:00,45.0,42.5,29.97,NNW,338,0.0,0.0,91,0.00,,,-99.99,Weather View 32 v70,2013-03-18 11:15:00,
2013-03-18 04:30:00,45.0,42.2,29.97,ESE,112,0.0,0.0,90,0.00,,,-99.99,Weather View 32 v70,2013-03-18 11:30:00,
2013-03-18 04:45:00,45.0,42.2,29.97,NNE,22,0.0,0.0,90,0.00,,,-99.99,Weather View 32 v70,2013-03-18 11:45:00,
2013-03-18 06:21:00,47.0,43.6,29.97,NNE,22,0.0,0.0,88,0.00,,,-99.99,Weather View 32 v70,2013-03-18 13:21:00,
2013-03-18 06:36:00,47.0,43.0,29.98,NNE,22,0.0,0.0,86,0.00,,,-99.99,Weather View 32 v70,2013-03-18 13:36:00,
2013-03-18 06:51:00,47.0,43.9,29.98,North,0,0.0,0.0,89,0.00,,,-99.99,Weather View 32 v70,2013-03-18 13:51:00,
2013-03-18 07:00:00,47.0,43.9,29.98,NNE,22,0.0,0.0,89,0.00,,,-99.99,Weather View 32 v70,2013-03-18 14:00:00,
2013-03-18 07:06:00,47.0,43.9,29.98,NNE,22,0.0,0.0,89,0.00,,,-99.99,Weather View 32 v70,2013-03-18 14:06:00,
2013-03-18 07:21:00,46.0,42.9,29.98,NW,315,0.0,0.0,89,0.00,,,-99.99,Weather View 32 v70,2013-03-18 14:21:00,
2013-03-18 07:51:00,47.0,45.1,29.99,NNE,22,0.0,0.0,93,0.00,,,-99.99,Weather View 32 v70,2013-03-18 14:51:00,
2013-03-18 08:00:00,49.0,45.9,30.00,NNE,22,0.0,0.0,89,0.00,,,-99.99,Weather View 32 v70,2013-03-18 15:00:00,
2013-03-18 08:06:00,49.0,45.9,30.00,NNE,22,0.0,0.0,89,0.00,,,-99.99,Weather View 32 v70,2013-03-18 15:06:00,
2013-03-18 08:21:00,47.0,43.9,30.00,NNW,338,0.0,0.0,89,0.00,,,-99.99,Weather View 32 v70,2013-03-18 15:21:00,
2013-03-18 08:36:00,47.0,45.1,30.00,NW,315,0.0,0.0,93,0.00,,,-99.99,Weather View 32 v70,2013-03-18 15:36:00,
2013-03-18 08:51:00,47.0,45.4,30.00,NW,315,0.0,0.0,94,0.00,,,-99.99,Weather View 32 v70,2013-03-18 15:51:00,
2013-03-18 09:00:00,49.0,47.3,30.00,North,0,0.0,0.0,94,0.00,,,-99.99,Weather View 32 v70,2013-03-18 16:00:00,
2013-03-18 09:06:00,49.0,47.3,30.00,North,0,0.0,0.0,94,0.00,,,-99.99,Weather View 32 v70,2013-03-18 16:06:00,
2013-03-18 09:21:00,50.0,47.8,30.01,NNW,338,0.0,0.0,92,0.00,,,-99.99,Weather View 32 v70,2013-03-18 16:21:00,
2013-03-18 09:36:00,53.0,48.9,30.01,NW,315,0.0,0.0,86,0.00,,,-99.99,Weather View 32 v70,2013-03-18 16:36:00,
2013-03-18 09:51:00,54.0,48.3,30.01,NNE,22,0.0,0.0,81,0.00,,,-99.99,Weather View 32 v70,2013-03-18 16:51:00,
2013-03-18 10:00:00,55.0,48.9,30.02,NW,315,0.0,0.0,80,0.00,,,-99.99,Weather View 32 v70,2013-03-18 17:00:00,
2013-03-18 10:06:00,55.0,48.9,30.02,NW,315,0.0,0.0,80,0.00,,,-99.99,Weather View 32 v70,2013-03-18 17:06:00,
2013-03-18 10:21:00,55.0,48.6,30.02,North,0,0.0,0.0,79,0.00,,,-99.99,Weather View 32 v70,2013-03-18 17:21:00,
2013-03-18 10:36:00,56.0,48.5,30.02,NNE,22,0.0,0.0,76,0.00,,,-99.99,Weather View 32 v70,2013-03-18 17:36:00,
2013-03-18 10:51:00,57.0,48.4,30.03,NW,315,0.0,0.0,73,0.00,,,-99.99,Weather View 32 v70,2013-03-18 17:51:00,
2013-03-18 11:00:00,58.0,46.7,30.03,North,0,0.0,1.0,66,0.00,,,-99.99,Weather View 32 v70,2013-03-18 18:00:00,
2013-03-18 11:06:00,58.0,46.7,30.03,North,0,0.0,1.0,66,0.00,,,-99.99,Weather View 32 v70,2013-03-18 18:06:00,
2013-03-18 11:21:00,59.0,47.2,30.02,North,0,0.0,1.0,65,0.00,,,-99.99,Weather View 32 v70,2013-03-18 18:21:00,
2013-03-18 11:36:00,60.0,47.3,30.03,North,0,0.0,1.0,63,0.00,,,-99.99,Weather View 32 v70,2013-03-18 18:36:00,
2013-03-18 11:51:00,61.0,47.9,30.03,NNE,22,0.0,1.0,62,0.00,,,-99.99,Weather View 32 v70,2013-03-18 18:51:00,
2013-03-18 12:00:00,62.0,47.5,30.03,North,0,0.0,0.0,59,0.00,,,-99.99,Weather View 32 v70,2013-03-18 19:00:00,
2013-03-18 12:06:00,62.0,47.5,30.03,North,0,0.0,0.0,59,0.00,,,-99.99,Weather View 32 v70,2013-03-18 19:06:00,
2013-03-18 12:21:00,64.0,49.3,30.03,NNW,338,0.0,7.0,59,0.00,,,-99.99,Weather View 32 v70,2013-03-18 19:21:00,
2013-03-18 12:36:00,64.0,51.1,30.03,NNE,22,0.0,7.0,63,0.00,,,-99.99,Weather View 32 v70,2013-03-18 19:36:00,
2013-03-18 12:51:00,65.0,52.1,30.02,North,0,0.0,7.0,63,0.00,,,-99.99,Weather View 32 v70,2013-03-18 19:51:00,
2013-03-18 13:00:00,64.0,50.7,30.02,NNE,22,0.0,7.0,62,0.00,,,-99.99,Weather View 32 v70,2013-03-18 20:00:00,
2013-03-18 13:06:00,64.0,50.7,30.02,NNE,22,0.0,7.0,62,0.00,,,-99.99,Weather View 32 v70,2013-03-18 20:06:00,
2013-03-18 13:21:00,65.0,50.7,30.02,NNE,22,0.0,5.0,60,0.00,,,-99.99,Weather View 32 v70,2013-03-18 20:21:00,
2013-03-18 14:00:00,66.0,51.7,30.02,NNE,22,0.0,27.0,60,0.00,,,-99.99,Weather View 32 v70,2013-03-18 21:00:00,
2013-03-18 14:21:00,66.0,51.7,30.01,North,0,0.0,27.0,60,0.00,,,-99.99,Weather View 32 v70,2013-03-18 21:21:00,
2013-03-18 14:36:00,67.0,52.6,30.01,North,0,0.0,5.0,60,0.00,,,-99.99,Weather View 32 v70,2013-03-18 21:36:00,
2013-03-18 15:00:00,66.0,52.1,30.01,NNE,22,0.0,10.0,61,0.00,,,-99.99,Weather View 32 v70,2013-03-18 22:00:00,
2013-03-18 15:06:00,66.0,52.1,30.01,NNE,22,0.0,10.0,61,0.00,,,-99.99,Weather View 32 v70,2013-03-18 22:06:00,
2013-03-18 15:21:00,66.0,50.8,30.01,NNE,22,6.0,10.0,58,0.00,,,-99.99,Weather View 32 v70,2013-03-18 22:21:00,
2013-03-18 15:51:00,65.0,48.9,30.01,North,0,4.0,10.0,56,0.00,,,-99.99,Weather View 32 v70,2013-03-18 22:51:00,
2013-03-18 16:00:00,66.0,47.8,30.01,North,0,1.0,10.0,52,0.00,,,-99.99,Weather View 32 v70,2013-03-18 23:00:00,
2013-03-18 16:06:00,66.0,47.8,30.01,North,0,1.0,10.0,52,0.00,,,-99.99,Weather View 32 v70,2013-03-18 23:06:00,
2013-03-18 16:21:00,66.0,49.3,30.01,North,0,5.0,10.0,55,0.00,,,-99.99,Weather View 32 v70,2013-03-18 23:21:00,
2013-03-18 16:51:00,66.0,48.3,30.02,North,0,0.0,9.0,53,0.00,,,-99.99,Weather View 32 v70,2013-03-18 23:51:00,
2013-03-18 17:00:00,66.0,49.8,30.01,NNE,22,0.0,9.0,56,0.00,,,-99.99,Weather View 32 v70,2013-03-19 00:00:00,
2013-03-18 17:06:00,66.0,49.8,30.01,NNE,22,0.0,9.0,56,0.00,,,-99.99,Weather View 32 v70,2013-03-19 00:06:00,
2013-03-18 17:21:00,65.0,49.8,30.01,NNE,22,3.0,10.0,58,0.00,,,-99.99,Weather View 32 v70,2013-03-19 00:21:00,
2013-03-18 17:36:00,64.0,49.3,30.01,North,0,8.0,11.0,59,0.00,,,-99.99,Weather View 32 v70,2013-03-19 00:36:00,
2013-03-18 17:51:00,64.0,48.9,30.01,North,0,0.0,11.0,58,0.00,,,-99.99,Weather View 32 v70,2013-03-19 00:51:00,
2013-03-18 18:00:00,64.0,50.7,30.02,North,0,5.0,11.0,62,0.00,,,-99.99,Weather View 32 v70,2013-03-19 01:00:00,
2013-03-18 18:06:00,64.0,50.7,30.02,North,0,5.0,11.0,62,0.00,,,-99.99,Weather View 32 v70,2013-03-19 01:06:00,
2013-03-18 18:21:00,64.0,50.2,30.02,NNE,22,0.0,11.0,61,0.00,,,-99.99,Weather View 32 v70,2013-03-19 01:21:00,
2013-03-18 18:36:00,63.0,50.6,30.03,NNE,22,5.0,10.0,64,0.00,,,-99.99,Weather View 32 v70,2013-03-19 01:36:00,
2013-03-18 19:00:00,62.0,50.9,30.03,NNW,338,0.0,10.0,67,0.00,,,-99.99,Weather View 32 v70,2013-03-19 02:00:00,
2013-03-18 19:21:00,63.0,51.0,30.03,NNE,22,0.0,10.0,65,0.00,,,-99.99,Weather View 32 v70,2013-03-19 02:21:00,
2013-03-18 19:36:00,62.0,49.2,30.03,North,0,0.0,8.0,63,0.00,,,-99.99,Weather View 32 v70,2013-03-19 02:36:00,
2013-03-18 19:51:00,61.0,47.9,30.03,NW,315,0.0,3.0,62,0.00,,,-99.99,Weather View 32 v70,2013-03-19 02:51:00,
2013-03-18 20:00:00,59.0,48.4,30.04,North,0,0.0,7.0,68,0.00,,,-99.99,Weather View 32 v70,2013-03-19 03:00:00,
2013-03-18 20:06:00,59.0,48.4,30.04,North,0,0.0,7.0,68,0.00,,,-99.99,Weather View 32 v70,2013-03-19 03:06:00,
2013-03-18 20:36:00,56.0,47.4,30.04,North,0,0.0,15.0,73,0.00,,,-99.99,Weather View 32 v70,2013-03-19 03:36:00,
2013-03-18 20:51:00,56.0,47.1,30.04,North,0,11.0,18.0,72,0.00,,,-99.99,Weather View 32 v70,2013-03-19 03:51:00,
2013-03-18 21:21:00,55.0,47.9,30.04,North,0,5.0,20.0,77,0.00,,,-99.99,Weather View 32 v70,2013-03-19 04:21:00,
2013-03-18 21:36:00,55.0,47.2,30.03,NNW,338,11.0,20.0,75,0.00,,,-99.99,Weather View 32 v70,2013-03-19 04:36:00,
2013-03-18 21:51:00,54.0,47.3,30.04,NNE,22,13.0,20.0,78,0.00,,,-99.99,Weather View 32 v70,2013-03-19 04:51:00,
2013-03-18 22:06:00,54.0,47.6,30.04,NNE,22,8.0,20.0,79,0.00,,,-99.99,Weather View 32 v70,2013-03-19 05:06:00,
2013-03-18 22:22:00,53.0,47.6,30.04,NNE,22,0.0,18.0,82,0.00,,,-99.99,Weather View 32 v70,2013-03-19 05:22:00,
2013-03-18 22:36:00,54.0,48.6,30.05,NNE,22,10.0,18.0,82,0.00,,,-99.99,Weather View 32 v70,2013-03-19 05:36:00,
2013-03-18 23:06:00,54.0,48.9,30.05,North,0,0.0,16.0,83,0.00,,,-99.99,Weather View 32 v70,2013-03-19 06:06:00,
2013-03-18 23:21:00,53.0,48.0,30.04,NNW,338,0.0,14.0,83,0.00,,,-99.99,Weather View 32 v70,2013-03-19 06:21:00,
2013-03-18 23:22:00,53.0,48.0,30.04,NNW,338,0.0,14.0,83,0.00,,,-99.99,Weather View 32 v70,2013-03-19 06:22:00,
2013-03-18 23:36:00,53.0,48.3,30.02,NNE,22,0.0,14.0,84,0.00,,,-99.99,Weather View 32 v70,2013-03-19 06:36:00,
2013-03-18 23:51:00,54.0,47.6,30.02,NNW,338,0.0,13.0,79,0.00,,,-99.99,Weather View 32 v70,2013-03-19 06:51:00,